Regional Weather Roundup
Issued by NWS

Home | Current Version | Previous Version | Graphics & Text | Print | Product List | Glossary On
Versions: 1 2 3 4 5 6 7 8 9 10 11 12 13 14 15 16 17 18 19 20 21 22 23 24 25 26 27 28 29 30 31 32 33 34 35 36 37 38 39 40 41 42 43 44 45 46 47 48 49 50
000
ASUS43 KMKX 260921
RWRWI

WISCONSIN REGIONAL WEATHER ROUNDUP
NATIONAL WEATHER SERVICE MILWAUKEE/SULLIVAN WI
400 AM CDT THU MAY 26 2016

NOTE: "FAIR" INDICATES FEW OR NO CLOUDS BELOW 12,000 FEET WITH NO
SIGNIFICANT WEATHER AND/OR OBSTRUCTIONS TO VISIBILITY.

WIZ001-002-006>008-014>016-023>028-261000-
NORTHWEST WISCONSIN

CITY           SKY/WX    TMP DP  RH WIND       PRES   REMARKS
SUPERIOR ARPT  CLOUDY    42  42  99 NE8       29.84S FOG
ASHLAND        CLOUDY    49  49 100 S3        29.84S FOG
HAYWARD        FOG       53  53 100 N3        29.81F VSB 1/4
SIREN          CLOUDY    57  57  98 SE6       29.79S FOG
CUMBERLAND     FOG       57  55  94 E6        29.79F VSB 1/4
RICE LAKE      FOG       58  57  96 E3        29.81F VSB<1/4
CHETEK         FOG       60  60 100 E5        29.79F VSB 1/2
LADYSMITH      FOG       59  59  97 CALM      29.84S VSB 1/4
EAU CLAIRE     FOG       56  56 100 CALM      29.78S VSB 3/4
MENOMONIE      FOG       60  60  99 CALM      29.79F VSB 1/2
NEW RICHMOND   LGT RAIN  63  63 100 S10       29.77F
OSCEOLA        CLOUDY    64  64 100 CALM      29.78F
$$

WIZ003>005-009-010-017-018-261000-
NORTH CENTRAL WISCONSIN

CITY           SKY/WX    TMP DP  RH WIND       PRES   REMARKS
MANITOWISH WTR NOT AVBL
ARBOR VITAE    CLOUDY    62  60  94 W5        29.84R
WOODRUFF       CLOUDY    62  60  94 W5        29.84R
RHINELANDER    CLOUDY    62  59  90 W6        29.84S
EAGLE RIVER      N/A     60  60  98 W8        29.83R
LAND O LAKES   CLOUDY    60  59  99 W5        29.84R
PHILLIPS       CLOUDY    60  60 100 S3        29.82S FOG
TOMAHAWK       CLOUDY    61  59  94 CALM      29.84S
MEDFORD        FOG       61  61 100 CALM      29.82S VSB 1/4
MERRILL        FOG       63  63 100 SW3       29.83F VSB 3/4
$$

WIZ029-030-035-036-043>047-261000-
CENTRAL WISCONSIN

CITY           SKY/WX    TMP DP  RH WIND       PRES   REMARKS
WAUSAU         FOG       63 N/A N/A S5        29.81F VSB 1/2
MOSINEE        FOG       61  61 100 SW5       29.84S VSB 1/4
MARSHFIELD     FOG       62  60  93 S5        29.81F VSB 1/4
STEVENS POINT  FOG       60  60 100 CALM      29.83S VSB 1/4
WAUPACA        FOG       61  60  97 CALM      29.83S VSB 1/4
WAUTOMA        FOG       58  58 100 CALM      29.83  VSB<1/4
WISC RAPIDS    FOG       61  59  93 CALM      29.82F VSB 1/4
CAMP DOUGLAS   FOG       59  59 100 S3        29.80F VSB 3/4
$$

WIZ011>013-019>022-031-037>040-048>050-261000-
NORTHEAST WISCONSIN

CITY           SKY/WX    TMP DP  RH WIND       PRES   REMARKS
ANTIGO         FOG       60  60 100 W7        29.84S VSB 1/2
SHAWANO        FOG       62  61  95 CALM      29.84S VSB<1/4
OCONTO         CLOUDY   N/A N/A N/A CALM      29.84R
STURGEON BAY   NOT AVBL
GREEN BAY      CLOUDY    59  58  96 S3        29.82F FOG
MANITOWOC      FOG       54  53  97 E6        29.85S VSB 1/4
APPLETON       FOG       61  61 100 S5        29.82S VSB<1/4
CLINTONVILLE   FOG       61  61 100 CALM      29.83S VSB 1/4
OSHKOSH        CLOUDY    63  62  97 S9        29.82F FOG
$$

WIZ032>034-041-042-053>061-261000-
SOUTHWEST WISCONSIN

CITY           SKY/WX    TMP DP  RH WIND       PRES   REMARKS
LA CROSSE      CLOUDY    64  61  90 SE7       29.78F
SPARTA         CLOUDY    54  54 100 E3        29.81F
VIROQUA        CLOUDY    64  60  90 SE5       29.83R
BOSCOBEL       FOG       61  60  97 CALM      29.81F VSB 1/4
PRAIRIE DU CHI CLOUDY    62  60  91 SE3       29.79F
PLATTEVILLE    MOCLDY    67  61  81 S9        29.83S
$$

WIZ056-057-062-063-064-067-068-261000-
SOUTH CENTRAL WISCONSIN

CITY           SKY/WX    TMP DP  RH WIND       PRES   REMARKS
REEDSBURG      CLOUDY    60  60 100 CALM      29.83S
BARABOO/DELLS  CLOUDY    61  59  95 CALM      29.83S
LONE ROCK      CLOUDY    60  58  92 CALM      29.83S
MINERAL POINT  CLOUDY    64  59  82 SE6       29.84S
MADISON        CLOUDY    65  63  93 S7        29.83F
MIDDLETON      CLOUDY    65  62  90 S3        29.84F
WATERTOWN      CLEAR     63  63 100 S3        29.85F FOG
MONROE         CLEAR     63  61  94 S6        29.85F
JANESVILLE     CLEAR     64  64 100 S5        29.85F FOG
$$

WIZ051-052-058>065-066-070>072-261000-
SOUTHEAST WISCONSIN

CITY           SKY/WX    TMP DP  RH WIND       PRES   REMARKS
MILWAUKEE      CLOUDY    64  63  96 S7        29.87F FOG
WAUKESHA       CLEAR     61  61 100 S7        29.87F FOG
MILWAUKEE/TIMM PTCLDY    63  59  88 SE3       29.87F FOG
RACINE         CLOUDY    60  57  89 S7        29.89F
BURLINGTON     CLEAR     61  61 100 CALM      29.87F FOG
KENOSHA        CLEAR     64  62  93 S6        29.87F FOG
FOND DU LAC    CLEAR     63  62  97 S7        29.84F FOG
SHEBOYGAN      FOG       59  58  96 S5        29.85F VSB 1/2
WEST BEND      FOG       59  59 100 CALM      29.86F VSB 1/4
JUNEAU         FOG       60  60  99 SE6       29.86F VSB<1/4
$$

LSZ147-162-261000-
LAKE SUPERIOR

STATION/POSITION TIME  TEMP    WIND        PRES    WAVE
                       AIR SEA DIR/SP/G            HT/PER
                 (UTC) (F)     (DEG/KT/KT) (MB)    (FT/S)
W MID LAKE BUOY  0850   40 38   10/ 10/ 10 1010.8R   2/ 4
DEVILS ISLAND    0900   42      30/  9/ 10 1011.2R
SAXON HARBOR     0800   47      CALM  /  1 1009.8F
$$

LMZ867-665-643>646-261000-
LAKE MICHIGAN

STATION/POSITION TIME  TEMP    WIND        PRES    WAVE
                       AIR SEA DIR/SP/G            HT/PER
                 (UTC) (F)     (DEG/KT/KT) (MB)    (FT/S)
CHAMBERS ISLAND  0800   60     160/  3/  9 1010.8
N MID LAKE BUOY  0850   51 45  170/ 10/ 12 1011.1F   1
NORTHPORT PIER   0800   54     150/  8/ 12 1011.2F
SISTER BAY       0834   57     180/ 12/ 16   N/A
ALGOMA LAKESHORE 0702             CALM       N/A
KEWAUNEE LAKESHO 0800   50     180/  4/  6 1010.5F
SHEBOYGAN LAKESH 0900   50     150/ 12/ 12 1011.6F
PORT WASHINGTON  0800   54     280/  1/  1 1012.5F
S MID LAKE BUOY  0750   54 49  150/ 10/ 12 1012.5F   1
KENOSHA   LAKESH 0900   56     180/ 11/ 13 1011.5F
$$

TC  - TEMPERATURE IN CELSIUS
VSB - VISIBILITY IN STATUTE MILES
WCI - WIND CHILL INDEX
HX  - HEAT INDEX





USA.gov is the U.S. government's official web portal to all federal, state and local government web resources and services.